Theta_e
317 318 318 318 319 320 320 319 320 320 320 320 319 319 320 321 322 322 322 322 322 322 322 321 322 322 318 315 316 326 343 337 324 323 321 316 313 313 310 313 314 313 317 320 323 322 321
316 316 317 317 316 318 318 318 318 319 319 320 319 319 319 319 320 321 321 320 320 320 321 321 323 320 315 307 322 328 327 323 324 323 319 318 315 316 313 313 312 315 317 318 321 323 323
316 316 316 316 315 315 316 317 318 318 318 319 319 319 319 319 319 319 320 319 319 319 321 322 323 318 310 309 322 322 322 327 328 327 320 320 320 314 313 310 315 315 312 314 315 321 320
315 316 315 315 314 314 315 315 316 317 318 319 319 318 318 318 318 318 318 318 318 319 321 324 321 317 308 320 323 322 322 319 324 326 324 324 321 316 313 315 313 310 311 306 313 318 320
315 315 314 314 314 314 314 314 314 315 316 318 318 318 318 318 317 318 318 317 318 320 322 323 319 317 309 321 317 320 320 316 318 321 322 321 318 313 314 307 306 308 303 305 309 319 319
314 314 314 314 314 314 314 313 314 315 315 315 317 317 317 317 317 316 316 316 319 322 321 321 320 313 318 313 317 318 319 318 315 317 315 314 312 308 309 306 299 303 303 305 307 315 317
314 314 314 313 313 313 314 313 314 314 315 315 315 315 315 316 316 315 315 320 316 313 313 313 315 313 315 318 320 316 318 317 315 314 307 311 306 304 307 309 309 308 307 305 309 317 315
313 313 313 313 313 313 314 314 313 314 314 314 314 315 315 315 316 315 316 317 312 312 304 314 316 315 319 319 311 314 319 311 311 307 310 307 303 308 311 311 309 309 306 307 311 316 315
313 313 313 313 313 313 313 313 313 313 314 314 314 314 314 314 314 316 318 314 318 316 305 308 311 312 314 317 311 312 314 312 309 307 308 304 307 310 309 309 308 308 306 307 307 313 314
312 313 313 313 313 313 312 312 312 312 313 313 313 313 313 313 313 321 316 318 319 317 301 305 308 311 312 314 309 317 317 312 309 306 308 306 309 309 307 307 309 305 310 309 309 308 303
311 312 312 313 313 313 313 312 312 312 313 313 313 313 313 312 315 317 318 321 319 315 294 309 310 318 315 309 311 312 317 313 307 307 308 305 306 306 306 307 310 306 311 309 308 306 306
311 312 312 313 313 313 313 312 313 313 313 313 313 313 312 317 319 321 321 322 316 301 293 304 309 307 307 309 309 312 312 314 313 308 309 309 312 308 308 310 310 311 309 309 308 305 299
312 312 312 312 313 312 312 312 312 312 312 313 313 313 311 315 314 320 322 316 299 294 306 303 304 307 306 305 307 308 307 305 303 300 301 307 307 311 311 307 310 308 305 298 296 297 296
311 311 311 312 312 312 312 312 312 312 312 312 312 311 314 319 321 319 319 306 293 300 302 307 306 307 304 306 305 307 305 302 306 305 303 301 299 307 311 309 306 305 306 299 294 295 298
310 311 311 311 312 312 312 312 312 311 311 312 310 319 318 320 320 318 311 299 297 299 303 302 304 302 303 305 306 305 305 304 305 307 302 302 302 310 311 311 310 305 302 307 302 305 301
310 310 310 311 311 312 312 312 312 311 311 312 313 317 317 320 321 315 305 298 302 306 305 303 297 301 298 303 304 305 303 307 306 308 311 307 302 309 310 311 310 308 310 302 303 297 297
310 309 309 311 311 311 312 312 312 311 311 311 313 311 318 322 319 309 299 301 304 307 306 302 299 299 301 302 305 304 305 306 308 308 310 310 309 306 310 306 304 305 304 306 307 305 299
309 309 309 310 311 311 312 312 312 311 311 309 315 306 318 319 305 306 302 304 303 304 306 303 304 301 299 303 302 303 304 308 310 310 305 310 310 304 305 311 311 309 306 309 303 303 305
308 309 309 310 311 311 312 312 312 311 311 313 311 311 318 315 299 301 305 303 305 303 303 302 301 303 303 300 299 305 307 311 311 309 308 311 308 301 303 307 309 306 308 310 314 313 307
308 309 308 309 311 311 312 312 312 312 312 312 310 304 310 310 307 302 301 301 300 305 303 303 301 303 301 299 306 304 306 311 312 311 316 316 315 307 300 304 306 304 306 308 310 306 304
308 309 308 310 311 311 312 312 312 311 312 312 310 307 308 300 303 304 303 302 298 298 303 303 300 300 299 299 302 303 307 309 312 314 315 315 310 308 308 309 307 306 306 308 306 308 305
308 308 308 309 311 311 312 312 312 311 311 311 306 305 306 305 305 302 301 300 299 300 300 298 298 301 301 299 299 298 304 305 306 311 313 319 308 310 306 310 308 306 308 308 308 309 309
308 307 308 309 311 311 312 312 313 311 310 309 311 311 305 302 302 300 300 300 301 303 303 304 303 301 300 302 306 308 309 308 309 308 311 317 310 310 303 309 308 303 307 307 309 310 310
308 306 308 309 310 311 312 312 312 312 310 313 313 312 304 298 299 299 301 301 301 302 300 304 303 301 306 309 309 307 307 308 307 310 315 313 314 311 306 307 298 308 314 313 311 316 324
306 306 307 309 310 311 312 312 312 312 311 311 314 312 305 298 299 300 300 299 303 305 304 305 306 309 311 307 301 299 302 304 305 309 311 320 315 306 303 302 308 310 314 312 310 312 321
306 306 306 308 310 311 312 311 312 312 311 312 314 317 307 299 299 302 301 302 299 302 304 306 310 313 311 304 300 294 296 301 302 306 315 316 321 311 306 300 299 314 317 321 319 309 325
305 306 306 308 309 311 312 312 311 312 313 314 314 317 306 298 301 304 299 298 303 302 301 307 308 308 312 303 299 298 299 308 300 301 304 307 310 306 306 304 306 315 319 319 306 312 326
306 305 305 307 309 310 312 314 312 312 314 313 312 316 306 300 301 304 305 301 302 303 299 308 307 307 305 301 299 300 301 306 309 309 308 307 305 306 309 304 297 318 319 315 327 332 331
306 306 306 306 308 310 311 314 312 313 313 312 308 313 313 301 302 310 310 312 310 310 306 308 307 309 310 305 304 305 302 306 306 302 315 306 311 310 315 312 320 318 330 336 338 332 333
Wind_Speed
12 14 16 18 19 17 16 15 14 13 12 14 15 14 14 12 12 15 15 17 18 20 19 19 19 19 14 10 11 10 8 9 9 8 12 12 13 13 15 16 17 14 13 15 9 3 6
13 14 15 16 16 16 16 16 15 15 13 13 15 16 15 16 16 16 16 16 19 19 20 18 17 19 8 14 4 15 13 10 12 14 13 13 10 14 15 17 18 15 9 16 10 8 9
14 14 14 14 15 15 16 16 15 14 14 13 13 15 16 17 18 17 18 17 18 19 19 20 15 8 10 20 7 2 7 11 13 15 11 10 12 8 10 14 16 18 16 10 17 12 8
13 14 14 15 15 16 16 17 17 18 16 14 14 15 16 16 18 19 19 19 20 21 21 19 9 6 9 14 11 18 11 12 9 9 10 14 8 13 14 13 13 13 15 14 16 15 13
13 14 14 15 16 16 17 18 17 18 18 17 17 16 16 19 20 20 21 23 24 23 20 13 6 10 13 3 13 12 13 14 13 11 9 9 11 13 14 15 13 13 13 18 19 19 15
13 13 13 14 15 15 16 17 17 18 19 19 17 17 17 19 20 21 22 27 24 9 11 11 13 10 18 14 13 15 15 16 12 11 11 11 9 14 15 14 14 14 16 16 17 19 18
13 13 14 16 17 17 17 18 18 18 18 19 19 20 20 22 23 21 17 9 6 8 11 14 9 13 11 14 5 8 9 13 17 12 15 16 13 16 19 20 19 21 16 18 17 14 18
13 14 15 16 17 17 17 17 18 18 19 19 20 20 21 21 23 24 13 9 8 9 12 17 25 23 22 12 12 13 14 13 19 19 18 17 18 20 19 20 19 20 20 14 16 9 8
13 14 14 15 16 15 16 16 17 17 17 17 18 19 21 24 24 12 9 8 9 12 9 12 23 25 21 19 15 15 21 19 16 22 20 21 20 22 22 20 20 19 18 14 16 8 5
13 14 14 14 14 14 17 17 17 18 18 18 18 20 22 26 10 12 3 7 9 9 7 7 11 12 22 21 24 20 17 18 20 22 22 21 22 22 20 20 18 16 13 17 16 14 10
12 13 14 14 14 15 16 17 18 18 17 16 17 19 21 14 12 7 12 11 9 8 7 8 10 4 8 24 6 24 27 21 24 22 16 21 22 23 18 20 14 14 18 19 18 15 15
12 14 14 14 15 16 16 17 17 18 18 18 17 18 19 7 9 11 13 12 8 8 6 2 8 5 11 19 26 21 25 25 20 24 24 23 23 23 21 19 16 18 17 9 8 10 13
13 14 15 15 15 16 16 17 18 19 19 18 18 16 13 10 8 12 11 9 7 7 9 3 8 4 10 14 18 25 21 25 22 21 24 23 26 22 22 19 17 20 16 8 10 12 14
13 13 14 15 15 16 17 17 18 19 19 19 18 14 10 9 10 8 9 7 6 9 5 16 13 17 19 13 17 21 26 22 28 28 17 20 20 27 14 16 17 18 17 12 18 13 15
13 14 15 16 16 16 17 17 17 18 19 19 19 7 7 2 6 6 8 7 4 4 14 12 14 16 17 16 15 19 25 25 26 27 24 20 23 23 18 16 23 16 20 19 21 20 12
13 14 15 15 16 17 18 17 17 18 19 15 8 9 5 6 5 6 6 9 12 14 16 13 15 13 19 21 19 18 23 26 25 28 28 24 14 22 23 17 23 24 15 15 13 17 16
13 14 15 15 16 17 18 18 17 17 18 12 7 6 8 8 3 6 8 12 16 13 12 18 14 19 22 21 20 22 27 22 24 27 27 25 18 15 20 20 20 17 21 14 13 11 14
13 14 15 15 16 17 17 17 15 15 19 8 7 5 8 5 6 6 8 11 9 15 14 18 21 18 21 21 18 27 28 25 25 26 28 27 9 15 21 18 20 20 19 18 10 12 10
13 13 14 14 15 16 16 15 13 13 12 7 6 4 5 3 6 5 11 15 18 13 15 19 19 22 22 22 16 23 25 24 25 27 25 22 15 11 17 17 20 20 21 18 11 10 8
13 13 13 14 15 16 16 14 12 11 9 5 7 4 4 4 6 7 12 14 15 13 17 15 22 21 25 25 16 24 27 29 24 23 23 17 10 13 14 15 17 20 20 17 17 8 9
13 13 14 14 15 15 15 15 11 10 8 5 5 3 6 6 5 10 12 15 17 19 18 20 20 25 24 14 13 19 16 21 25 14 16 18 12 16 21 19 22 21 21 19 20 17 12
13 13 14 15 15 15 15 14 10 9 4 5 5 5 7 11 11 11 11 12 17 16 16 15 19 20 22 8 11 24 25 16 14 21 13 13 9 14 17 14 17 22 21 21 20 15 12
13 13 14 15 15 16 15 14 10 9 4 4 2 5 4 5 7 9 9 13 13 16 20 13 15 15 17 11 13 16 18 18 23 19 16 11 10 11 16 24 23 20 22 22 15 14 16
12 13 14 15 16 16 16 14 11 11 12 6 5 4 4 7 7 10 14 17 22 20 18 21 7 18 12 7 16 19 27 28 21 18 12 11 13 11 14 13 12 13 17 10 14 17 23
11 13 14 15 17 16 15 11 8 11 11 8 6 3 4 6 7 14 10 14 18 16 20 23 18 15 3 4 10 17 19 20 18 18 14 9 9 10 10 11 6 8 5 1 12 12 32
11 13 14 14 15 16 12 7 5 9 8 7 7 3 3 4 7 4 18 19 12 11 16 21 17 8 9 7 9 14 11 8 8 7 12 10 9 10 8 8 11 12 21 15 11 11 22
12 13 14 14 15 15 13 9 5 7 7 8 3 4 1 3 9 11 6 13 12 12 9 17 12 9 9 8 12 15 11 11 12 14 13 11 11 14 12 7 6 20 21 15 11 6 17
12 13 14 14 14 15 14 9 7 6 8 7 3 4 2 3 10 18 16 14 13 9 7 12 11 9 6 9 8 12 5 6 12 18 20 15 12 12 13 4 5 26 12 5 8 14 16
11 12 13 14 14 14 13 7 8 9 9 10 3 3 3 3 9 20 24 23 26 25 14 7 13 18 6 4 7 3 6 6 13 13 19 16 14 8 4 2 25 24 9 8 10 16 17
Wind_Direction
22 21 19 15 9 9 1 356 348 341 339 334 331 332 328 315 309 306 313 315 312 310 312 311 316 325 326 301 272 132 171 151 189 208 241 241 232 238 241 248 254 245 253 263 261 233 277
25 23 20 15 11 6 1 357 352 344 338 335 333 333 334 328 320 311 307 305 305 305 306 305 314 316 265 276 84 146 186 166 238 218 246 242 244 258 262 254 264 255 239 268 256 237 238
27 22 17 14 9 6 4 359 355 351 343 334 334 331 329 325 321 312 304 299 294 296 296 300 310 285 268 252 290 205 217 205 218 251 251 255 265 258 269 277 264 280 274 261 258 238 232
26 20 16 11 8 4 0 357 355 352 349 342 334 330 326 322 317 310 300 295 294 294 298 298 300 245 258 257 251 251 212 228 238 260 267 281 263 268 263 261 272 269 254 257 234 235 223
24 19 14 9 5 1 358 355 353 351 351 347 338 331 328 322 318 310 302 298 291 289 280 268 252 223 254 142 220 229 213 226 222 228 241 271 267 244 239 243 253 244 240 230 257 198 224
21 17 13 8 5 2 357 355 351 350 347 346 341 334 326 320 316 313 308 290 279 300 223 226 257 244 240 234 208 223 218 231 224 220 224 224 240 232 236 217 229 217 228 252 227 212 205
15 12 9 5 2 359 356 354 352 349 347 344 340 336 331 323 317 316 322 311 193 174 218 235 203 227 292 210 86 196 196 217 224 214 223 212 225 223 227 228 233 264 216 217 251 215 186
12 8 5 1 359 355 350 349 347 345 343 340 337 332 326 320 313 315 296 297 28 320 289 255 254 256 261 269 201 216 205 210 216 216 216 234 226 236 234 239 230 249 264 252 230 175 171
9 5 3 359 354 349 348 345 342 340 339 337 333 328 323 319 315 293 269 10 316 324 277 268 223 234 225 245 225 221 200 208 215 220 222 226 228 223 246 235 245 226 247 252 260 141 132
4 0 357 354 348 347 347 343 339 338 338 335 331 327 323 324 295 334 20 332 312 334 276 250 192 219 222 225 238 233 212 209 229 226 231 238 239 245 216 245 230 244 230 256 254 245 200
358 356 354 350 347 345 341 340 338 335 329 328 325 325 323 323 309 351 344 314 323 271 286 89 115 73 198 210 235 206 225 207 225 222 218 231 243 241 245 230 234 231 244 218 247 254 255
356 355 353 349 346 344 340 335 333 330 327 325 321 321 331 335 231 334 323 312 271 231 239 145 130 210 229 206 227 260 200 235 222 237 241 243 224 229 247 245 205 240 246 292 214 242 241
352 352 350 347 343 341 337 334 331 328 325 322 313 308 305 309 316 321 319 278 234 257 27 341 353 216 227 244 217 226 210 212 220 220 229 231 240 221 228 210 231 227 228 205 218 227 236
348 346 347 344 341 338 336 332 329 327 325 318 308 302 275 264 282 317 292 257 260 317 329 355 335 332 307 265 246 216 239 208 219 228 223 224 218 230 196 215 218 213 224 221 209 214 227
342 342 342 341 338 335 331 326 324 326 328 323 306 243 250 97 358 299 282 244 285 355 343 358 324 288 278 280 277 229 226 238 218 220 231 224 229 214 190 216 233 194 219 230 265 291 273
336 337 337 337 334 333 331 332 329 329 334 336 312 297 78 329 358 277 263 262 306 323 316 313 293 306 294 297 294 265 242 230 226 215 232 246 241 223 199 204 229 241 197 227 240 256 270
333 334 334 333 332 331 332 335 332 331 333 339 272 248 87 345 303 252 257 291 308 309 328 297 294 279 286 286 306 303 301 234 224 225 215 241 250 235 201 196 217 216 232 212 239 248 257
330 331 330 329 328 328 329 331 333 333 333 282 284 267 83 318 268 238 262 283 311 304 299 289 288 269 278 288 298 300 291 287 217 212 212 228 243 252 238 188 210 227 224 228 223 235 266
325 326 326 325 326 325 326 329 330 333 350 322 275 315 111 295 273 306 333 320 311 283 291 291 278 275 268 271 285 276 281 277 280 201 214 211 223 242 255 196 206 226 216 223 219 254 283
317 320 323 323 322 323 325 327 329 326 340 293 284 278 147 215 273 284 302 303 299 303 295 281 285 281 277 260 263 273 296 296 300 251 197 199 199 227 230 202 195 214 227 213 226 233 233
312 316 319 321 321 321 318 319 324 316 325 281 269 5 23 299 303 337 320 312 301 296 293 294 283 261 256 272 289 292 301 329 327 196 183 187 220 222 249 287 200 199 216 219 215 212 228
309 313 317 317 316 313 312 312 311 294 297 263 299 337 344 299 311 305 290 277 275 294 287 287 292 279 277 223 265 297 304 345 306 336 191 176 214 232 250 250 224 197 197 229 204 189 213
307 311 314 316 314 309 306 298 292 255 228 269 260 310 279 285 275 285 304 316 306 293 299 268 283 261 278 286 214 277 287 296 288 300 317 192 198 222 246 217 226 203 192 205 197 215 218
302 309 313 315 313 309 306 290 269 224 218 294 315 304 276 266 278 283 296 295 296 288 293 298 245 303 299 346 290 281 271 264 268 269 264 286 193 225 248 242 217 169 192 215 195 124 98
302 310 313 317 314 317 307 306 254 207 219 257 269 292 303 271 284 288 319 304 294 296 285 280 278 221 277 197 268 267 278 262 258 252 238 236 233 230 245 235 131 158 55 200 172 92 110
304 309 313 318 319 322 320 324 260 191 218 249 256 282 275 328 266 239 310 293 288 314 297 270 247 228 230 239 264 255 262 203 195 178 207 204 254 245 223 226 202 166 160 201 139 162 120
304 309 312 319 323 320 316 309 229 197 203 235 259 200 90 253 268 270 297 313 305 296 284 301 336 241 215 254 250 268 254 277 203 197 186 199 218 227 242 205 296 322 166 162 175 136 114
301 306 309 316 321 316 315 299 222 208 198 215 269 195 180 254 277 273 279 281 277 280 277 313 313 255 227 251 256 268 277 288 274 185 190 194 207 219 244 194 30 289 39 79 103 109 120
298 303 308 314 319 317 313 289 221 213 212 199 255 179 183 234 270 296 280 266 254 262 267 272 290 300 297 277 237 349 306 329 326 195 173 201 209 205 353 79 136 193 135 102 117 115 113